Location: Unspecified
(49.2170°N, 0.0000°E)
Time: 17:51:38
(UTC+00:00)

A-11 Canister half - Pass Details

Date: 25 January 2021
Orbit: 1516 x 1684 km, 47.2° (Epoch: 05 March)

Event Time Altitude Azimuth Distance (km) Brightness Sun altitude
Rises 20:35:37 0° 236° (SW) 4,747 12.0 -37.2°
Reaches altitude 10° 20:38:46 10° 233° (SW) 3,744 11.4 -37.7°
Enters shadow 20:45:17 46° 208° (SSW) 1,975 9.5 -38.7°
